CZ-6A DEB, 54633

Orbit data source: Space-Track

CZ-6A DEB, 54633 is space debris in SSO originally from a launch on Fri, 11 Nov 2022 UTC launched from the Taiyaun Space Center, China (TSC). Debris objects in space refer to the collection of defunct objects orbiting the Earth. Examples of debris include non-operational satellites, rocket bodies, and fragments generated from explosions, collisions, or faulty payload assembly.

Loading next visibility...
Identifier
54633, 2022-151PK
Orbit
SSO
Country
Flag of CNCN / PRC
Related business
Manufacturer
SAST
Mission
Spacecraft
Bus & Motor
Unknown
Mass
Unknown
Launch date (UTC)
2022-11-11 (3 years ago)
Launch vehicle
Unknown
Launch site
Taiyaun Space Center, China (TSC)
Object type
Payload
Rocket body
Debris
Shape & HBR
Unknown shape, 0.1 m
Radar Cross Section
Small (<0.1 m²)

Expand to show TLE details & history
Last TLE update: 23 hours ago

TLE from 23 hours ago
0 CZ-6A DEB
1 54633U 22151PK  25351.11103102  .00011771  00000-0  20568-2 0  9997
2 54633  98.6408  41.3879 0076980 134.9942 225.7533 14.66124758162417
Epoch: 2025-12-17T02:39Z
TLE epoch observation values (Epoch: 2025-12-17T02:39:53.080Z)
Latitude
-0.00001°
Longitude
-84.56885°
Altitude
714.543 km
Speed
7.478 km/s
True Right ascension
02h 45m 33s
True Declination
0° 00' 00"
Sunlit
Object was in full shadow at epoch
Visualization orbit readout
Latitude
Unknown
Longitude
Unknown
Altitude
Unknown
Speed
Unknown
Apparent Right ascension
Unknown
Apparent Declination
Unknown
Sunlit
N/A
Visualization observer readout
Local Sidereal Time
00:27:39
Azimuth
Unknown
Elevation
Unknown
Doppler factor
Unknown
Orbital elements
Apogee altitude
724.821 km
Perigee altitude
616.299 km
Semi-major axis
7,048.697 km
Eccentricity
0.0077
Inclination
98.6408°
RAAN
41.3879°
Arg. of periapsis
134.9942°
True anomaly
225.12562°
Mean anomaly
225.7533°
Eccentric anomaly
225.43904°
Mean motion
3.66758 °/min
Orbital period
98.16 mins
BSTAR
0.0020568
Loading maneuver chart data...
Computing Atmospheric mass density...
Loading historical data...
Loading historical data...
Loading historical data...
Loading historical data...
Loading historical data...
Loading historical data...
Loading historical data...

Documentation

Showing up to 5 results
|